Regional Weather Roundup
Issued by NWS

Home | Current Version | Previous Version | Text Only | Print | Product List | Glossary On
Versions: 1 2 3 4 5 6 7 8 9 10 11 12 13 14 15 16 17 18 19 20 21 22 23 24 25 26 27 28 29 30 31 32 33 34 35 36 37 38 39 40 41 42 43 44 45 46 47 48 49 50
000
ASUS45 KPSR 290310
RWRAZ

ARIZONA REGIONAL HOURLY WEATHER ROUNDUP
NATIONAL WEATHER SERVICE PHOENIX AZ
800 PM MST MON JUL 28 2014

NOTE: FAIR INDICATES FEW OR NO CLOUDS BELOW 12,000 FEET WITH NO
SIGNIFICANT WEATHER AND/OR OBSTRUCTIONS TO VISIBILITY.

AZZ001>003-036-290400-
NORTHWEST ARIZONA

CITY           SKY/WX    TMP DP  RH WIND       PRES   REMARKS
BULLHEAD CITY  MOCLDY    91  63  38 N23       29.92R THUNDER
KINGMAN        PTCLDY    76  61  59 NE10      30.15R
$$

AZZ004>008-015-016-018-290400-
NORTH CENTRAL ARIZONA

CITY           SKY/WX    TMP DP  RH WIND       PRES   REMARKS
GRAND CANYON   PTCLDY    67  52  58 CALM      30.37R
WILLIAMS       PTCLDY    64  57  77 CALM      30.44S
PRESCOTT       TSTM      67  54  63 N14       30.26S
FLAGSTAFF      MOCLDY    66  52  60 CALM      30.40R
PAYSON         CLOUDY    70  57  64 NE9       30.28R
PAGE           CLOUDY    81  54  39 SE6       30.18S
$$

AZZ009>014-017-290400-
NORTHEAST ARIZONA

CITY           SKY/WX    TMP DP  RH WIND       PRES   REMARKS
WINSLOW        MOCLDY    79  54  41 SW12      30.24R
SAINT JOHNS    MOCLDY    71  60  68 SE5       30.29R
WINDOW ROCK    LGT RAIN  67  53  61 N10G22    30.38S
SHOW LOW       PTCLDY    66  52  59 S7        30.37R
$$

AZZ023-290400-
GREATER PHOENIX AREA

CITY           SKY/WX    TMP DP  RH WIND       PRES   REMARKS
PHOENIX        PTCLDY   103  57  21 NW13      29.88R HX 102
BUCKEYE          N/A     95  57  28 SW8       29.90R
GLENDALE       PTCLDY   102  55  21 SW7       29.90R HX 101
LUKE AFB       NOT AVBL
DEER VALLEY    CLEAR     99  57  24 SW8       29.92R
SCOTTSDALE     CLEAR     99  56  23 NW3       29.93S
MESA-GATEWAY     N/A    N/A N/A N/A MISG        N/A
CHANDLER       MOCLDY   100  59  25 S6        29.91R HX 100
$$

AZZ027-028-290400-
SOUTHWEST MARICOPA COUNTY AND PINAL COUNTY

CITY           SKY/WX    TMP DP  RH WIND       PRES   REMARKS
CASA GRANDE    CLEAR     99  55  23 CALM      29.94R
GILA BEND      CLEAR    100  54  20 W3        29.90R
$$

AZZ503-504-507>509-290400-
SOUTHEAST ARIZONA

CITY           SKY/WX    TMP DP  RH WIND       PRES   REMARKS
TUCSON         PTCLDY    91  61  36 S7        30.07R
DAVIS-MONTHAN  CLEAR     87  64  46 S5        30.05R
RYAN FIELD       N/A     91  63  38 SE8       30.04R
NOGALES        CLEAR     81  61  50 CALM      30.16R
SIERRA VISTA   MOCLDY    79  61  53 W8        30.23R
DOUGLAS        MOCLDY    81  66  60 N7        30.17S
SAFFORD        CLEAR     86  61  42 CALM      30.07R
$$

AZZ020-021-025-026-031-290400-
SOUTHWEST ARIZONA

CITY           SKY/WX    TMP DP  RH WIND       PRES   REMARKS
YUMA           PTCLDY   100  66  32 SW14      29.84R HX 104
$$

CAZ031-033-041-043-047-048-061-290400-
SOUTHERN CALIFORNIA

CITY           SKY/WX    TMP DP  RH WIND       PRES   REMARKS
DOWNTOWN L.A.  CLEAR     74  60  61 VRB5      29.99R
L.A. AIRPORT   PTCLDY    70  65  84 W14       30.00R
SAN DIEGO      PTCLDY    76  63  64 W7        30.01R
BURBANK        CLEAR     82  44  26 S5        29.99R
ONTARIO        PTCLDY    85  36  17 W12       30.01R
RIVERSIDE      PTCLDY    86  37  17 W12       30.00R
PALM SPRINGS   PTCLDY   102  47  15 NW12      29.88R
EL CENTRO NAS  PTCLDY   102  58  23 NE3       29.81R HX 102
IMPERIAL       PTCLDY   104  58  21 N5        29.81R HX 104
BLYTHE           N/A    N/A N/A N/A MISG      29.83R
NEEDLES        TSTM      87  67  51 W20       29.93R
$$

NVZ020-UTZ003-290400-
SOUTHERN NEVADA-UTAH

CITY           SKY/WX    TMP DP  RH WIND       PRES   REMARKS
LAS VEGAS      CLOUDY    86  61  42 S10       29.99S
SALT LAKE CITY CLOUDY    69  62  78 SE9       30.19F
$$

NMZ009-TXZ055-290400-
NEW MEXICO-WEST TEXAS

CITY           SKY/WX    TMP DP  RH WIND       PRES   REMARKS
ALBUQUERQUE    LGT RAIN  71  61  70 E17       30.30R
EL PASO        PTCLDY    88  54  31 E8        30.13R
$$


........................KEY........................
SKY/WX - SKY CONDITION/WEATHER
TMP    - TEMPERATURE IN FAHRENHEIT
DP     - DEW POINT IN FAHRENHEIT
RH     - RELATIVE HUMIDITY IN PERCENT
WIND   - DIRECTION AND SPEED IN MILES PER HOUR (MPH)
VRB    - VARIABLE WIND DIRECTION
PRES   - MEAN SEA LEVEL PRESSURE IN INCHES OF MERCURY
         F - FALLING PRESSURE   R - RISING PRESSURE
         S - STEADY PRESSURE
VSB    - VISIBILITY IN MILES
HX     - HEAT INDEX IN FAHRENHEIT
WCI    - WIND CHILL INDEX IN FAHRENHEIT
TC     - TEMPERATURE IN CELSIUS WHICH IS ALSO KNOWN AS
         TEMPERATURE IN CENTIGRADE
AFB    - AIR FORCE BASE
         LUKE AFB IS LUKE AIR FORCE BASE
         DAVIS-MONTHAN IS DAVIS-MONTHAN AIR FORCE BASE
NAS    - NAVAL AIR STATION
         EL CENTRO NAS IS EL CENTRO NAVAL AIR STATION
N/A    - NOT AVAILABLE


USA.gov is the U.S. government's official web portal to all federal, state and local government web resources and services.